COSMOS 372

Satellite information

Favourite Embed

Satellite Type and Status

PAYLOADIN ORBIT

Key statistics

Satellite COSMOS 372 at a glance.

Uptime

20148

Days in orbit

Revolutions

≈ 14.4

Per day

Orbit

LEO

Low Earth Orbit

Inclination

74.1

Latest

Satellite identification and parameters

Extended collection of information and parameters for COSMOS 372.

Object identification

Identified? True

Debris? False

Object name: COSMOS 372

International designator: 1970-086A

Object number (NORAD): 4588

Object ID (CCSDS): 4588

Country: COMMONWEALTH OF INDEPENDENT STATES (CIS)

Current information (Y/N): Y

RCS size: LARGE

Orbital parameters

Period: 100.217 minutes

Inclination: 74.054 deg

SMA: 7146.958 km

Apoapsis: 778.172 km

Periapsis: 759.474 km

RAAN: 198.0528 deg

Eccentricy: 0.00130807

Argument of periapsis: 5.2163 deg

Mean anomaly: 114.2395 deg

Mean motion: 14.3688135 rev/day

Mean motion (dot): 0.00000197 rev/day2

B* drag term: 0.000075348759 1/REarth

Two-line elements (TLE)

Creation date: Dec. 12, 2025, 10:14 a.m.

Reference frame: TEME

Reference center: EARTH

Epoch: Dec. 12, 2025, 1:50 a.m. UTC

TLE line 0: 0 COSMOS 372

TLE line 1: 1 04588U 70086A 25346.07687454 .00000197 00000-0 75349-4 0 9996

TLE line 2: 2 04588 74.0540 198.0528 0013081 5.2163 114.2395 14.36881350886040

Live tracking on map

Real-time ground track for satellite COSMOS 372.

In-orbit conjunctions

A list of the most updated potential collisions computed for object COSMOS 372.

Target Orbit TCA Probability of collision Miss distance Type
FENGYUN 1C DEB SSO 2025-12-11 05:47:40 0.0003405176 337.0 (m) DEBRIS
COSMOS 1275 DEB LEO 2025-10-13 03:17:36 0.0002269964 516.0 (m) DEBRIS
DELTA 1 DEB SSO 2025-03-30 19:38:58 0.0002918312 254.0 (m) DEBRIS
DELTA 1 DEB SSO 2025-03-30 14:37:44 0.0001363026 440.0 (m) DEBRIS
FENGYUN 1C DEB SSO 2025-03-20 09:30:13 0.0001412548 863.0 (m) DEBRIS

Associated space launch

Military communications satellite

COSMOS 372 was lifted into orbit during the mission ‘Kosmos-3M | Strela-2M 2’, on board a Kosmos-3M space rocket.

The launch took place on Oct. 16, 1970, 2:59 p.m. from 132/1 (132L).

For more information about the launch, click the button.

Launch to space Kosmos-3M | Strela-2M 2
Kosmos-3M | Strela-2M 2

Agency: N/A

Status: Launch Successful

Launch date: Oct. 16, 1970, 2:59 p.m. UTC

Rocket: Kosmos-3M

Launch pad: 132/1 (132L)

Location: Plesetsk Cosmodrome, Russian Federation

...

Latest news about this satellite

There are no fresh news available about this satellite. Check back as we update our databases every day.


Newsletter sign-up

Weekly statistics, charts and insights to help you stay on top of the space industry.